^^
Saratoga-Weather Station Historical Data
Daily Summary for April 18, 2021 Units:  Metric    English   Both
Daily Weekly Monthly Yearly Custom
  High: Low: Average:
Temperature: 19.6 °C 14 °C 16.3 °C
Dew Point: 16 °C 12.9 °C 14.4 °C
Humidity: 95% 76% 89%
Wind Speed: 17.7km/h 0km/h 4.1km/h
Wind Gust: 20.9km/h - -
Wind- - West
Pressure: 1018.0 hPa 1016.3 hPa -
Precipitation: 0.8 mm    
Historical Graphs
 
 
Tabular Data for April 18, 2021
Time Temperature Dew Point Pressure Wind Wind Speed Wind Gust Humidity Rainfall Rate (Hourly) solar
00:03 14 °C 12.9 °C 1018.0 hPa West 3.2 km/h 8 km/h 93% 0.2 mm 0 W/m2
00:08 14 °C 12.9 °C 1018.0 hPa WSW 1.4 km/h 6.4 km/h 93% 0.0 mm 0 W/m2
00:13 14 °C 12.9 °C 1018.0 hPa NNW 3.2 km/h 4.8 km/h 93% 0.0 mm 0 W/m2
00:18 14 °C 12.9 °C 1018.0 hPa NW 1.4 km/h 3.2 km/h 93% 0.0 mm 0 W/m2
00:23 14.1 °C 13 °C 1018.0 hPa West 1.4 km/h 4.8 km/h 93% 0.0 mm 0 W/m2
00:28 14.1 °C 13 °C 1018.0 hPa West 6.4 km/h 12.9 km/h 93% 0.0 mm 0 W/m2
00:33 14.1 °C 13 °C 1018.0 hPa WNW 4.7 km/h 6.4 km/h 93% 0.0 mm 0 W/m2
00:38 14.1 °C 13 °C 1018.0 hPa North 1.4 km/h 12.9 km/h 93% 0.0 mm 0 W/m2
00:44 14.1 °C 13.1 °C 1018.0 hPa WNW 1.4 km/h 9.7 km/h 94% 0.0 mm 0 W/m2
00:49 14.1 °C 13.1 °C 1018.0 hPa WNW 1.4 km/h 1.6 km/h 94% 0.0 mm 0 W/m2
00:54 14.1 °C 13.1 °C 1018.0 hPa NW 3.2 km/h 8 km/h 94% 0.0 mm 0 W/m2
00:59 14.1 °C 13.1 °C 1018.0 hPa NW 3.2 km/h 4.8 km/h 94% 0.0 mm 0 W/m2
01:04 14 °C 13 °C 1018.0 hPa WNW 4.7 km/h 6.4 km/h 94% 0.0 mm 0 W/m2
01:09 14 °C 13 °C 1018.0 hPa WSW 3.2 km/h 4.8 km/h 94% 0.0 mm 0 W/m2
01:14 14 °C 13 °C 1018.0 hPa NW 1.4 km/h 6.4 km/h 94% 0.0 mm 0 W/m2
01:19 14 °C 13 °C 1018.0 hPa West 3.2 km/h 6.4 km/h 94% 0.0 mm 0 W/m2
01:24 14 °C 13 °C 1018.0 hPa NW 3.2 km/h 3.2 km/h 94% 0.0 mm 0 W/m2
01:29 14.1 °C 13.1 °C 1018.0 hPa Calm   6.4 km/h 94% 0.0 mm 0 W/m2
01:34 14.1 °C 13.1 °C 1018.0 hPa WNW 6.4 km/h 6.4 km/h 94% 0.0 mm 0 W/m2
01:39 14.1 °C 13.1 °C 1018.0 hPa WNW 3.2 km/h 6.4 km/h 94% 0.2 mm 0 W/m2
01:44 14.1 °C 13.1 °C 1018.0 hPa WNW 6.4 km/h 11.3 km/h 94% 0.2 mm 0 W/m2
01:49 14.1 °C 13.1 °C 1018.0 hPa West 4.7 km/h 6.4 km/h 94% 0.2 mm 0 W/m2
01:54 14.1 °C 13.1 °C 1018.0 hPa WSW 3.2 km/h 14.5 km/h 94% 0.2 mm 0 W/m2
01:59 14.1 °C 13.1 °C 1018.0 hPa WNW 4.7 km/h 11.3 km/h 94% 0.2 mm 0 W/m2
02:04 14.1 °C 13.1 °C 1018.0 hPa West 4.7 km/h 6.4 km/h 94% 0.2 mm 0 W/m2
02:09 14.1 °C 13.1 °C 1018.0 hPa WNW 3.2 km/h 6.4 km/h 94% 0.2 mm 0 W/m2
02:14 14.1 °C 13.1 °C 1018.0 hPa WNW 4.7 km/h 9.7 km/h 94% 0.2 mm 0 W/m2
02:19 14.1 °C 13.1 °C 1018.0 hPa WSW 4.7 km/h 6.4 km/h 94% 0.2 mm 0 W/m2
02:24 14.1 °C 13.1 °C 1018.0 hPa SW 6.4 km/h 11.3 km/h 94% 0.2 mm 0 W/m2
02:29 14.1 °C 13.1 °C 1018.0 hPa SW 4.7 km/h 12.9 km/h 94% 0.2 mm 0 W/m2
02:34 14.1 °C 13.1 °C 1018.0 hPa ENE 3.2 km/h 6.4 km/h 94% 0.5 mm 0 W/m2
02:39 14.1 °C 13.1 °C 1018.0 hPa WSW 4.7 km/h 9.7 km/h 94% 0.2 mm 0 W/m2
02:44 14.1 °C 13.1 °C 1017.6 hPa WNW 6.4 km/h 12.9 km/h 94% 0.2 mm 0 W/m2
02:49 14.1 °C 13.1 °C 1018.0 hPa WSW 3.2 km/h 14.5 km/h 94% 0.2 mm 0 W/m2
02:54 14.2 °C 13.2 °C 1017.6 hPa WSW 4.7 km/h 11.3 km/h 94% 0.2 mm 0 W/m2
02:59 14.2 °C 13.2 °C 1017.6 hPa West 3.2 km/h 12.9 km/h 94% 0.2 mm 0 W/m2
03:04 14.2 °C 13.2 °C 1017.6 hPa WNW 3.2 km/h 11.3 km/h 94% 0.2 mm 0 W/m2
03:09 14.2 °C 13.4 °C 1017.6 hPa West 1.4 km/h 8 km/h 95% 0.2 mm 0 W/m2
03:14 14.2 °C 13.4 °C 1017.6 hPa WNW 3.2 km/h 4.8 km/h 95% 0.2 mm 0 W/m2
03:19 14.2 °C 13.4 °C 1017.6 hPa West 3.2 km/h 12.9 km/h 95% 0.2 mm 0 W/m2
03:24 14.2 °C 13.4 °C 1017.6 hPa West 9.7 km/h 9.7 km/h 95% 0.5 mm 0 W/m2
03:29 14.2 °C 13.4 °C 1017.6 hPa West 3.2 km/h 4.8 km/h 95% 0.5 mm 0 W/m2
03:34 14.2 °C 13.4 °C 1017.6 hPa West 4.7 km/h 11.3 km/h 95% 0.2 mm 0 W/m2
03:39 14.2 °C 13.4 °C 1017.6 hPa WNW 1.4 km/h 6.4 km/h 95% 0.2 mm 0 W/m2
03:44 14.2 °C 13.4 °C 1017.6 hPa West 3.2 km/h 11.3 km/h 95% 0.2 mm 0 W/m2
03:49 14.2 °C 13.4 °C 1017.6 hPa West 6.4 km/h 12.9 km/h 95% 0.2 mm 0 W/m2
03:54 14.2 °C 13.4 °C 1017.6 hPa WSW 6.4 km/h 11.3 km/h 95% 0.2 mm 0 W/m2
04:04 14.2 °C 13.4 °C 1017.6 hPa WNW 4.7 km/h 8 km/h 95% 0.2 mm 0 W/m2
04:09 14.2 °C 13.4 °C 1017.6 hPa WNW 3.2 km/h 14.5 km/h 95% 0.2 mm 0 W/m2
04:14 14.3 °C 13.5 °C 1017.6 hPa West 4.7 km/h 11.3 km/h 95% 0.2 mm 0 W/m2
04:19 14.3 °C 13.5 °C 1017.6 hPa WNW 4.7 km/h 14.5 km/h 95% 0.2 mm 0 W/m2
04:24 14.3 °C 13.5 °C 1017.6 hPa West 9.7 km/h 16.1 km/h 95% 0.0 mm 0 W/m2
04:29 14.3 °C 13.5 °C 1017.6 hPa WNW 7.9 km/h 8 km/h 95% 0.0 mm 0 W/m2
04:39 14.3 °C 13.5 °C 1017.6 hPa WNW 6.4 km/h 12.9 km/h 95% 0.0 mm 0 W/m2
04:44 14.3 °C 13.5 °C 1017.6 hPa WSW 1.4 km/h 14.5 km/h 95% 0.0 mm 0 W/m2
04:49 14.3 °C 13.5 °C 1017.6 hPa WSW 4.7 km/h 6.4 km/h 95% 0.0 mm 0 W/m2
04:54 14.3 °C 13.3 °C 1017.3 hPa WSW 6.4 km/h 8 km/h 94% 0.0 mm 0 W/m2
04:59 14.3 °C 13.3 °C 1017.6 hPa WSW 3.2 km/h 4.8 km/h 94% 0.0 mm 0 W/m2
05:04 14.3 °C 13.3 °C 1017.6 hPa WSW 6.4 km/h 8 km/h 94% 0.0 mm 0 W/m2
05:09 14.3 °C 13.3 °C 1017.6 hPa WSW 4.7 km/h 12.9 km/h 94% 0.0 mm 0 W/m2
05:14 14.3 °C 13.3 °C 1017.6 hPa SW 4.7 km/h 6.4 km/h 94% 0.0 mm 0 W/m2
05:19 14.4 °C 13.4 °C 1017.6 hPa WSW 1.4 km/h 12.9 km/h 94% 0.0 mm 0 W/m2
05:24 14.4 °C 13.4 °C 1017.6 hPa West 6.4 km/h 6.4 km/h 94% 0.0 mm 0 W/m2
05:29 14.4 °C 13.4 °C 1017.6 hPa West 1.4 km/h 8 km/h 94% 0.0 mm 0 W/m2
05:34 14.3 °C 13.3 °C 1017.6 hPa WNW 4.7 km/h 11.3 km/h 94% 0.0 mm 0 W/m2
05:39 14.4 °C 13.4 °C 1017.6 hPa WSW 4.7 km/h 6.4 km/h 94% 0.0 mm 0 W/m2
05:44 14.4 °C 13.4 °C 1017.6 hPa West 9.7 km/h 11.3 km/h 94% 0.0 mm 0 W/m2
05:49 14.4 °C 13.4 °C 1017.6 hPa West 3.2 km/h 11.3 km/h 94% 0.0 mm 0 W/m2
05:54 14.4 °C 13.4 °C 1017.6 hPa WNW 3.2 km/h 6.4 km/h 94% 0.0 mm 0 W/m2
05:59 14.4 °C 13.4 °C 1017.6 hPa WNW 1.4 km/h 11.3 km/h 94% 0.0 mm 0 W/m2
06:04 14.4 °C 13.4 °C 1017.6 hPa WNW 3.2 km/h 4.8 km/h 94% 0.0 mm 0 W/m2
06:09 14.4 °C 13.4 °C 1017.6 hPa WSW 6.4 km/h 6.4 km/h 94% 0.0 mm 0 W/m2
06:14 14.4 °C 13.4 °C 1017.6 hPa WSW 1.4 km/h 3.2 km/h 94% 0.0 mm 0 W/m2
06:19 14.4 °C 13.4 °C 1017.6 hPa West 3.2 km/h 6.4 km/h 94% 0.0 mm 0 W/m2
06:24 14.4 °C 13.4 °C 1017.6 hPa West 3.2 km/h 6.4 km/h 94% 0.0 mm 0 W/m2
06:29 14.4 °C 13.4 °C 1017.6 hPa WSW 3.2 km/h 4.8 km/h 94% 0.0 mm 0 W/m2
06:34 14.4 °C 13.4 °C 1017.6 hPa WNW 6.4 km/h 6.4 km/h 94% 0.0 mm 0 W/m2
06:39 14.4 °C 13.4 °C 1017.6 hPa West 4.7 km/h 9.7 km/h 94% 0.0 mm 0 W/m2
06:44 14.4 °C 13.4 °C 1017.6 hPa WSW 4.7 km/h 4.8 km/h 94% 0.0 mm 0 W/m2
06:49 14.4 °C 13.4 °C 1017.6 hPa West 4.7 km/h 4.8 km/h 94% 0.0 mm 0 W/m2
06:54 14.4 °C 13.4 °C 1017.6 hPa WNW 3.2 km/h 4.8 km/h 94% 0.0 mm 5 W/m2
06:59 14.4 °C 13.4 °C 1017.6 hPa West 1.4 km/h 6.4 km/h 94% 0.0 mm 5 W/m2
07:04 14.4 °C 13.4 °C 1017.6 hPa West 3.2 km/h 4.8 km/h 94% 0.0 mm 7 W/m2
07:09 14.4 °C 13.4 °C 1017.6 hPa WNW 1.4 km/h 3.2 km/h 94% 0.0 mm 7 W/m2
07:14 14.4 °C 13.6 °C 1017.6 hPa Calm   1.6 km/h 95% 0.0 mm 9 W/m2
07:19 14.4 °C 13.6 °C 1017.6 hPa WNW 3.2 km/h 3.2 km/h 95% 0.0 mm 12 W/m2
07:24 14.4 °C 13.6 °C 1017.6 hPa Calm   4.8 km/h 95% 0.0 mm 14 W/m2
07:29 14.4 °C 13.6 °C 1017.6 hPa West 1.4 km/h 3.2 km/h 95% 0.0 mm 18 W/m2
07:34 14.4 °C 13.6 °C 1017.6 hPa West 3.2 km/h 3.2 km/h 95% 0.0 mm 18 W/m2
07:39 14.4 °C 13.6 °C 1017.6 hPa SW 1.4 km/h 3.2 km/h 95% 0.0 mm 21 W/m2
07:44 14.5 °C 13.7 °C 1017.6 hPa WNW 1.4 km/h 3.2 km/h 95% 0.0 mm 21 W/m2
07:49 14.5 °C 13.7 °C 1017.6 hPa Calm   4.8 km/h 95% 0.0 mm 26 W/m2
07:54 14.5 °C 13.7 °C 1017.6 hPa WNW 1.4 km/h 4.8 km/h 95% 0.0 mm 26 W/m2
07:59 14.5 °C 13.7 °C 1018.0 hPa NW 3.2 km/h 4.8 km/h 95% 0.0 mm 35 W/m2
08:04 14.6 °C 13.8 °C 1018.0 hPa Calm   3.2 km/h 95% 0.0 mm 65 W/m2
08:10 14.6 °C 13.8 °C 1017.6 hPa WNW 1.4 km/h 6.4 km/h 95% 0.0 mm 49 W/m2
08:15 14.7 °C 13.9 °C 1017.6 hPa West 1.4 km/h 4.8 km/h 95% 0.0 mm 37 W/m2
08:20 14.7 °C 13.9 °C 1017.6 hPa West 4.7 km/h 4.8 km/h 95% 0.0 mm 40 W/m2
08:25 14.7 °C 13.9 °C 1017.6 hPa WNW 1.4 km/h 4.8 km/h 95% 0.0 mm 46 W/m2
08:30 14.7 °C 13.9 °C 1017.6 hPa WNW 3.2 km/h 9.7 km/h 95% 0.0 mm 39 W/m2
08:35 14.7 °C 13.9 °C 1017.6 hPa West 4.7 km/h 4.8 km/h 95% 0.0 mm 46 W/m2
08:40 14.7 °C 13.9 °C 1017.6 hPa WNW 1.4 km/h 8 km/h 95% 0.0 mm 51 W/m2
08:45 14.7 °C 13.9 °C 1017.6 hPa SW 3.2 km/h 6.4 km/h 95% 0.0 mm 65 W/m2
08:50 14.8 °C 14 °C 1017.6 hPa WNW 1.4 km/h 4.8 km/h 95% 0.0 mm 72 W/m2
08:55 14.8 °C 14 °C 1018.0 hPa WNW 3.2 km/h 4.8 km/h 95% 0.0 mm 63 W/m2
09:00 14.9 °C 14.1 °C 1017.6 hPa West 1.4 km/h 6.4 km/h 95% 0.0 mm 63 W/m2
09:05 14.9 °C 14.1 °C 1017.6 hPa WNW 3.2 km/h 6.4 km/h 95% 0.0 mm 81 W/m2
09:10 15 °C 14.2 °C 1017.6 hPa WNW 4.7 km/h 6.4 km/h 95% 0.0 mm 58 W/m2
09:15 15.1 °C 14.3 °C 1017.6 hPa WNW 1.4 km/h 3.2 km/h 95% 0.0 mm 70 W/m2
09:20 15.1 °C 14.1 °C 1017.6 hPa WNW 4.7 km/h 4.8 km/h 94% 0.0 mm 91 W/m2
09:25 15.1 °C 14.1 °C 1017.6 hPa WNW 3.2 km/h 4.8 km/h 94% 0.0 mm 91 W/m2
09:30 15.2 °C 14.2 °C 1017.6 hPa NW 1.4 km/h 6.4 km/h 94% 0.0 mm 118 W/m2
09:35 15.3 °C 14.3 °C 1017.6 hPa NW 3.2 km/h 3.2 km/h 94% 0.0 mm 146 W/m2
09:40 15.4 °C 14.4 °C 1017.6 hPa WNW 3.2 km/h 6.4 km/h 94% 0.0 mm 139 W/m2
09:45 15.4 °C 14.4 °C 1017.6 hPa NW 1.4 km/h 4.8 km/h 94% 0.0 mm 137 W/m2
09:50 15.6 °C 14.6 °C 1017.6 hPa NW 4.7 km/h 4.8 km/h 94% 0.0 mm 107 W/m2
09:55 15.6 °C 14.6 °C 1017.6 hPa West 3.2 km/h 8 km/h 94% 0.0 mm 127 W/m2
10:00 15.6 °C 14.6 °C 1017.6 hPa WNW 1.4 km/h 4.8 km/h 94% 0.0 mm 123 W/m2
10:05 15.6 °C 14.5 °C 1017.6 hPa WNW 1.4 km/h 8 km/h 93% 0.0 mm 142 W/m2
10:10 15.7 °C 14.6 °C 1017.6 hPa NW 3.2 km/h 4.8 km/h 93% 0.0 mm 181 W/m2
10:15 15.7 °C 14.6 °C 1017.6 hPa WSW 1.4 km/h 4.8 km/h 93% 0.0 mm 230 W/m2
10:20 15.9 °C 14.9 °C 1017.6 hPa WNW 1.4 km/h 6.4 km/h 94% 0.0 mm 251 W/m2
10:25 16 °C 15 °C 1017.6 hPa WNW 3.2 km/h 4.8 km/h 94% 0.0 mm 243 W/m2
10:30 16.2 °C 15.1 °C 1017.6 hPa West 1.4 km/h 9.7 km/h 93% 0.0 mm 216 W/m2
10:35 16.2 °C 14.9 °C 1018.0 hPa WNW 4.7 km/h 11.3 km/h 92% 0.0 mm 167 W/m2
10:40 16.1 °C 14.8 °C 1017.6 hPa NW 4.7 km/h 8 km/h 92% 0.0 mm 214 W/m2
10:45 16.1 °C 15 °C 1018.0 hPa West 9.7 km/h 9.7 km/h 93% 0.0 mm 179 W/m2
10:50 16.1 °C 15 °C 1018.0 hPa SW 3.2 km/h 4.8 km/h 93% 0.0 mm 151 W/m2
10:55 16.1 °C 15 °C 1018.0 hPa Calm   4.8 km/h 93% 0.0 mm 176 W/m2
11:00 16.1 °C 15 °C 1018.0 hPa WSW 1.4 km/h 8 km/h 93% 0.0 mm 188 W/m2
11:05 16.1 °C 15 °C 1017.6 hPa West 1.4 km/h 6.4 km/h 93% 0.0 mm 232 W/m2
11:10 16.2 °C 15.1 °C 1017.6 hPa West 9.7 km/h 11.3 km/h 93% 0.0 mm 250 W/m2
11:15 16.2 °C 15.1 °C 1018.0 hPa WNW 4.7 km/h 6.4 km/h 93% 0.2 mm 248 W/m2
11:20 16.2 °C 14.9 °C 1017.6 hPa WNW 6.4 km/h 11.3 km/h 92% 0.2 mm 220 W/m2
11:25 16.3 °C 15 °C 1017.6 hPa NW 6.4 km/h 9.7 km/h 92% 0.2 mm 257 W/m2
11:30 16.4 °C 15.1 °C 1017.6 hPa West 9.7 km/h 16.1 km/h 92% 0.2 mm 316 W/m2
11:35 16.7 °C 15.2 °C 1017.6 hPa West 9.7 km/h 9.7 km/h 91% 0.2 mm 387 W/m2
11:40 16.8 °C 15.1 °C 1017.6 hPa West 4.7 km/h 11.3 km/h 90% 0.2 mm 243 W/m2
11:45 16.8 °C 15 °C 1017.6 hPa WNW 4.7 km/h 16.1 km/h 89% 0.2 mm 128 W/m2
11:51 16.7 °C 14.9 °C 1017.6 hPa West 3.2 km/h 6.4 km/h 89% 0.2 mm 239 W/m2
11:56 16.7 °C 15.1 °C 1017.6 hPa NW 1.4 km/h 8 km/h 90% 0.2 mm 338 W/m2
12:01 16.9 °C 15.2 °C 1017.6 hPa Calm   6.4 km/h 90% 0.2 mm 457 W/m2
12:06 17.2 °C 15.5 °C 1017.6 hPa WNW 9.7 km/h 14.5 km/h 90% 0.2 mm 334 W/m2
12:11 17.3 °C 15.5 °C 1017.6 hPa WNW 4.7 km/h 6.4 km/h 89% 0.2 mm 380 W/m2
12:16 17.5 °C 15.5 °C 1017.3 hPa NW 4.7 km/h 16.1 km/h 88% 0.0 mm 833 W/m2
12:21 17.8 °C 15.4 °C 1017.3 hPa NW 4.7 km/h 12.9 km/h 86% 0.0 mm 851 W/m2
12:26 18.2 °C 16 °C 1017.3 hPa SW 4.7 km/h 16.1 km/h 87% 0.0 mm 476 W/m2
12:31 18.3 °C 15.4 °C 1017.3 hPa NW 4.7 km/h 14.5 km/h 83% 0.0 mm 352 W/m2
12:36 18.4 °C 15.6 °C 1017.3 hPa NW 1.4 km/h 11.3 km/h 84% 0.0 mm 650 W/m2
12:41 18.7 °C 15.8 °C 1017.3 hPa WSW 4.7 km/h 14.5 km/h 83% 0.0 mm 531 W/m2
12:46 18.7 °C 15.4 °C 1017.3 hPa WNW 4.7 km/h 14.5 km/h 81% 0.0 mm 388 W/m2
12:51 18.6 °C 15.3 °C 1017.3 hPa WSW 4.7 km/h 12.9 km/h 81% 0.0 mm 327 W/m2
12:56 18.5 °C 15.4 °C 1017.3 hPa West 9.7 km/h 12.9 km/h 82% 0.0 mm 369 W/m2
13:01 18.5 °C 15.4 °C 1017.3 hPa NW 9.7 km/h 12.9 km/h 82% 0.0 mm 418 W/m2
13:06 18.8 °C 15.7 °C 1017.3 hPa WNW 3.2 km/h 12.9 km/h 82% 0.0 mm 487 W/m2
13:11 18.8 °C 15.1 °C 1017.3 hPa West 9.7 km/h 9.7 km/h 79% 0.0 mm 492 W/m2
13:16 18.9 °C 15.4 °C 1016.9 hPa WNW 4.7 km/h 11.3 km/h 80% 0.0 mm 1035 W/m2
13:21 19.3 °C 15.6 °C 1016.9 hPa WNW 4.7 km/h 17.7 km/h 79% 0.0 mm 410 W/m2
13:26 19.3 °C 15.2 °C 1016.9 hPa WNW 6.4 km/h 16.1 km/h 77% 0.0 mm 450 W/m2
13:31 19.3 °C 15.4 °C 1017.3 hPa WSW 3.2 km/h 17.7 km/h 78% 0.0 mm 387 W/m2
13:36 19.3 °C 15.2 °C 1017.3 hPa WNW 11.1 km/h 12.9 km/h 77% 0.0 mm 380 W/m2
13:41 19.2 °C 15.1 °C 1017.3 hPa WSW 3.2 km/h 16.1 km/h 77% 0.0 mm 381 W/m2
13:46 19.2 °C 15.1 °C 1017.3 hPa West 6.4 km/h 12.9 km/h 77% 0.0 mm 353 W/m2
13:51 19.1 °C 15.2 °C 1017.3 hPa West 9.7 km/h 16.1 km/h 78% 0.0 mm 364 W/m2
13:56 19.1 °C 15 °C 1017.3 hPa WSW 6.4 km/h 9.7 km/h 77% 0.0 mm 345 W/m2
14:01 19.2 °C 15.1 °C 1017.3 hPa WNW 7.9 km/h 11.3 km/h 77% 0.0 mm 327 W/m2
14:06 19.2 °C 14.9 °C 1017.3 hPa WNW 6.4 km/h 12.9 km/h 76% 0.0 mm 287 W/m2
14:11 19.2 °C 15.1 °C 1017.3 hPa WNW 4.7 km/h 6.4 km/h 77% 0.0 mm 274 W/m2
14:16 19.1 °C 15 °C 1017.3 hPa NW 6.4 km/h 6.4 km/h 77% 0.0 mm 309 W/m2
14:21 19.1 °C 15 °C 1017.3 hPa West 4.7 km/h 9.7 km/h 77% 0.0 mm 185 W/m2
14:26 18.8 °C 14.7 °C 1017.3 hPa WSW 3.2 km/h 3.2 km/h 77% 0.0 mm 135 W/m2
14:31 18.7 °C 15 °C 1017.3 hPa West 9.7 km/h 9.7 km/h 79% 0.0 mm 148 W/m2
14:36 18.6 °C 14.9 °C 1017.3 hPa NW 7.9 km/h 12.9 km/h 79% 0.0 mm 155 W/m2
14:41 18.4 °C 14.5 °C 1017.3 hPa WNW 3.2 km/h 11.3 km/h 78% 0.0 mm 160 W/m2
14:46 18.4 °C 14.9 °C 1017.3 hPa West 1.4 km/h 12.9 km/h 80% 0.0 mm 195 W/m2
14:51 18.6 °C 15.1 °C 1017.3 hPa SW 6.4 km/h 12.9 km/h 80% 0.0 mm 137 W/m2
14:56 18.5 °C 15 °C 1017.3 hPa West 4.7 km/h 8 km/h 80% 0.0 mm 88 W/m2
15:01 18.4 °C 15.1 °C 1017.3 hPa WNW 3.2 km/h 12.9 km/h 81% 0.0 mm 127 W/m2
15:06 18.5 °C 15.4 °C 1017.3 hPa NW 7.9 km/h 8 km/h 82% 0.0 mm 236 W/m2
15:11 18.6 °C 15.3 °C 1017.3 hPa WNW 4.7 km/h 6.4 km/h 81% 0.0 mm 373 W/m2
15:16 18.6 °C 15.1 °C 1016.9 hPa West 9.7 km/h 12.9 km/h 80% 0.0 mm 316 W/m2
15:21 18.7 °C 15.2 °C 1016.9 hPa West 1.4 km/h 9.7 km/h 80% 0.0 mm 244 W/m2
15:26 18.8 °C 15.3 °C 1016.9 hPa NW 1.4 km/h 12.9 km/h 80% 0.0 mm 171 W/m2
15:31 18.8 °C 15.3 °C 1016.9 hPa WNW 3.2 km/h 8 km/h 80% 0.0 mm 139 W/m2
15:36 18.8 °C 15.1 °C 1016.9 hPa WSW 7.9 km/h 12.9 km/h 79% 0.0 mm 146 W/m2
15:41 18.7 °C 15 °C 1016.9 hPa West 3.2 km/h 6.4 km/h 79% 0.0 mm 107 W/m2
15:46 18.7 °C 15.2 °C 1016.9 hPa WSW 4.7 km/h 6.4 km/h 80% 0.0 mm 102 W/m2
15:51 18.6 °C 15.1 °C 1016.9 hPa WNW 4.7 km/h 16.1 km/h 80% 0.0 mm 95 W/m2
15:56 18.4 °C 15.3 °C 1016.9 hPa WNW 4.7 km/h 14.5 km/h 82% 0.0 mm 151 W/m2
16:01 18.1 °C 15.2 °C 1016.9 hPa West 16.3 km/h 16.1 km/h 83% 0.0 mm 151 W/m2
16:06 17.9 °C 15.2 °C 1016.9 hPa SW 9.7 km/h 11.3 km/h 84% 0.0 mm 248 W/m2
16:11 17.8 °C 15.2 °C 1016.9 hPa WNW 7.9 km/h 16.1 km/h 85% 0.0 mm 221 W/m2
16:16 17.8 °C 15.2 °C 1016.9 hPa West 3.2 km/h 9.7 km/h 85% 0.0 mm 339 W/m2
16:21 17.9 °C 15.3 °C 1016.9 hPa West 6.4 km/h 11.3 km/h 85% 0.0 mm 406 W/m2
16:26 18.1 °C 15.4 °C 1016.9 hPa West 4.7 km/h 6.4 km/h 84% 0.0 mm 374 W/m2
16:31 18.3 °C 15.4 °C 1016.9 hPa WNW 3.2 km/h 11.3 km/h 83% 0.0 mm 392 W/m2
16:36 18.6 °C 15.7 °C 1016.9 hPa West 3.2 km/h 12.9 km/h 83% 0.0 mm 396 W/m2
16:41 18.7 °C 15.4 °C 1016.6 hPa WSW 1.4 km/h 9.7 km/h 81% 0.0 mm 390 W/m2
16:46 18.9 °C 15.6 °C 1016.6 hPa WNW 3.2 km/h 12.9 km/h 81% 0.0 mm 378 W/m2
16:51 19.1 °C 15.4 °C 1016.6 hPa WNW 6.4 km/h 12.9 km/h 79% 0.0 mm 439 W/m2
16:56 19.2 °C 15.3 °C 1016.6 hPa West 11.1 km/h 16.1 km/h 78% 0.0 mm 443 W/m2
17:01 19.4 °C 15.5 °C 1016.6 hPa WNW 4.7 km/h 11.3 km/h 78% 0.0 mm 371 W/m2
17:06 19.6 °C 15.5 °C 1016.6 hPa WNW 11.1 km/h 16.1 km/h 77% 0.0 mm 255 W/m2
17:11 19.5 °C 15.4 °C 1016.6 hPa WSW 11.1 km/h 12.9 km/h 77% 0.0 mm 272 W/m2
17:16 19.4 °C 15.1 °C 1016.6 hPa NW 3.2 km/h 16.1 km/h 76% 0.0 mm 213 W/m2
17:21 19.4 °C 15.3 °C 1016.6 hPa WNW 7.9 km/h 11.3 km/h 77% 0.0 mm 142 W/m2
17:26 19.3 °C 15.2 °C 1016.6 hPa WSW 7.9 km/h 11.3 km/h 77% 0.0 mm 130 W/m2
17:32 19.1 °C 15.2 °C 1016.6 hPa WSW 1.4 km/h 6.4 km/h 78% 0.0 mm 134 W/m2
17:37 19.1 °C 15.4 °C 1016.6 hPa West 3.2 km/h 3.2 km/h 79% 0.0 mm 100 W/m2
17:42 19.1 °C 15.6 °C 1016.6 hPa WSW 1.4 km/h 4.8 km/h 80% 0.0 mm 100 W/m2
17:47 18.9 °C 15.6 °C 1016.6 hPa Calm   11.3 km/h 81% 0.0 mm 102 W/m2
17:52 18.8 °C 15.7 °C 1016.6 hPa NW 3.2 km/h 4.8 km/h 82% 0.0 mm 95 W/m2
17:57 18.7 °C 15.6 °C 1016.6 hPa WNW 3.2 km/h 11.3 km/h 82% 0.0 mm 109 W/m2
18:02 18.7 °C 15.8 °C 1016.6 hPa NW 1.4 km/h 4.8 km/h 83% 0.0 mm 116 W/m2
18:07 18.6 °C 15.7 °C 1016.6 hPa West 1.4 km/h 3.2 km/h 83% 0.0 mm 104 W/m2
18:12 18.6 °C 15.5 °C 1016.6 hPa SSW 9.7 km/h 11.3 km/h 82% 0.0 mm 100 W/m2
18:17 18.6 °C 15.5 °C 1016.3 hPa NW 3.2 km/h 11.3 km/h 82% 0.0 mm 111 W/m2
18:22 18.6 °C 15.7 °C 1016.3 hPa West 3.2 km/h 4.8 km/h 83% 0.0 mm 114 W/m2
18:27 18.6 °C 15.5 °C 1016.3 hPa WNW 1.4 km/h 6.4 km/h 82% 0.0 mm 93 W/m2
18:32 18.6 °C 15.5 °C 1016.3 hPa WNW 3.2 km/h 6.4 km/h 82% 0.0 mm 72 W/m2
18:37 18.6 °C 15.5 °C 1016.3 hPa WNW 11.1 km/h 12.9 km/h 82% 0.0 mm 60 W/m2
18:42 18.5 °C 15.2 °C 1016.3 hPa NW 11.1 km/h 11.3 km/h 81% 0.0 mm 49 W/m2
18:47 18.4 °C 15.1 °C 1016.3 hPa WNW 3.2 km/h 12.9 km/h 81% 0.0 mm 42 W/m2
18:52 18.4 °C 15.1 °C 1016.3 hPa West 3.2 km/h 6.4 km/h 81% 0.0 mm 44 W/m2
18:57 18.3 °C 15.2 °C 1016.3 hPa WNW 4.7 km/h 12.9 km/h 82% 0.0 mm 44 W/m2
19:02 18.3 °C 15.2 °C 1016.3 hPa WSW 7.9 km/h 12.9 km/h 82% 0.0 mm 44 W/m2
19:07 18.2 °C 15.3 °C 1016.3 hPa WNW 6.4 km/h 11.3 km/h 83% 0.0 mm 47 W/m2
19:12 18.1 °C 15.2 °C 1016.3 hPa West 4.7 km/h 9.7 km/h 83% 0.0 mm 42 W/m2
19:17 18 °C 15.3 °C 1016.3 hPa NNW 3.2 km/h 11.3 km/h 84% 0.0 mm 39 W/m2
19:22 18 °C 15.3 °C 1016.3 hPa NNW 1.4 km/h 6.4 km/h 84% 0.0 mm 44 W/m2
19:27 18 °C 15.3 °C 1016.3 hPa West 6.4 km/h 11.3 km/h 84% 0.0 mm 44 W/m2
19:32 18 °C 15.3 °C 1016.3 hPa WSW 1.4 km/h 6.4 km/h 84% 0.0 mm 37 W/m2
19:37 17.9 °C 15.2 °C 1016.3 hPa WSW 17.7 km/h 20.9 km/h 84% 0.0 mm 30 W/m2
19:42 17.7 °C 15 °C 1016.3 hPa WNW 14.3 km/h 14.5 km/h 84% 0.0 mm 23 W/m2
19:47 17.5 °C 14.8 °C 1016.3 hPa WSW 6.4 km/h 19.3 km/h 84% 0.0 mm 23 W/m2
19:52 17.4 °C 14.7 °C 1016.3 hPa WNW 1.4 km/h 6.4 km/h 84% 0.0 mm 25 W/m2
19:57 17.4 °C 14.7 °C 1016.3 hPa West 1.4 km/h 12.9 km/h 84% 0.0 mm 25 W/m2
20:02 17.4 °C 14.7 °C 1016.3 hPa West 4.7 km/h 9.7 km/h 84% 0.0 mm 25 W/m2
20:07 17.4 °C 14.7 °C 1016.3 hPa West 3.2 km/h 4.8 km/h 84% 0.0 mm 23 W/m2
20:12 17.4 °C 14.9 °C 1016.3 hPa NNW 3.2 km/h 6.4 km/h 85% 0.0 mm 19 W/m2
20:17 17.4 °C 14.9 °C 1016.3 hPa Calm   4.8 km/h 85% 0.0 mm 16 W/m2
20:22 17.3 °C 14.8 °C 1016.3 hPa West 3.2 km/h 6.4 km/h 85% 0.0 mm 12 W/m2
20:27 17.3 °C 14.9 °C 1016.3 hPa Calm   3.2 km/h 86% 0.0 mm 11 W/m2
20:32 17.3 °C 14.9 °C 1016.3 hPa WNW 6.4 km/h 8 km/h 86% 0.0 mm 7 W/m2
20:37 17.2 °C 15 °C 1016.3 hPa NW 4.7 km/h 4.8 km/h 87% 0.0 mm 0 W/m2
20:42 17.2 °C 15 °C 1016.3 hPa West 4.7 km/h 12.9 km/h 87% 0.0 mm 0 W/m2
20:47 17.1 °C 15.1 °C 1016.3 hPa WNW 3.2 km/h 6.4 km/h 88% 0.0 mm 0 W/m2
20:52 17.1 °C 15.1 °C 1016.3 hPa WSW 1.4 km/h 4.8 km/h 88% 0.0 mm 0 W/m2
20:57 17 °C 15 °C 1016.3 hPa NW 4.7 km/h 6.4 km/h 88% 0.0 mm 0 W/m2
21:02 17 °C 15 °C 1016.3 hPa WNW 6.4 km/h 11.3 km/h 88% 0.0 mm 0 W/m2
21:07 16.9 °C 15.1 °C 1016.3 hPa WSW 3.2 km/h 8 km/h 89% 0.0 mm 0 W/m2
21:12 16.9 °C 15.1 °C 1016.3 hPa WSW 1.4 km/h 9.7 km/h 89% 0.0 mm 0 W/m2
21:17 16.9 °C 15.1 °C 1016.3 hPa West 3.2 km/h 9.7 km/h 89% 0.0 mm 0 W/m2
21:22 16.9 °C 15.1 °C 1016.3 hPa West 4.7 km/h 6.4 km/h 89% 0.0 mm 0 W/m2
21:27 16.9 °C 15.1 °C 1016.3 hPa West 1.4 km/h 11.3 km/h 89% 0.0 mm 0 W/m2
21:32 16.9 °C 15.1 °C 1016.3 hPa WNW 3.2 km/h 4.8 km/h 89% 0.0 mm 0 W/m2
21:37 16.8 °C 15 °C 1016.3 hPa NW 1.4 km/h 3.2 km/h 89% 0.0 mm 0 W/m2
21:42 16.8 °C 15 °C 1016.3 hPa WNW 4.7 km/h 6.4 km/h 89% 0.0 mm 0 W/m2
21:47 16.8 °C 15 °C 1016.3 hPa SW 6.4 km/h 8 km/h 89% 0.0 mm 0 W/m2
21:52 16.8 °C 15 °C 1016.3 hPa West 1.4 km/h 11.3 km/h 89% 0.0 mm 0 W/m2
21:57 16.8 °C 15 °C 1016.3 hPa WNW 1.4 km/h 3.2 km/h 89% 0.0 mm 0 W/m2
22:02 16.7 °C 14.9 °C 1016.3 hPa WSW 4.7 km/h 9.7 km/h 89% 0.0 mm 0 W/m2
22:07 16.7 °C 14.9 °C 1016.3 hPa WNW 1.4 km/h 6.4 km/h 89% 0.0 mm 0 W/m2
22:12 16.7 °C 15.1 °C 1016.3 hPa WSW 1.4 km/h 6.4 km/h 90% 0.0 mm 0 W/m2
22:17 16.7 °C 15.1 °C 1016.3 hPa NW 1.4 km/h 4.8 km/h 90% 0.0 mm 0 W/m2
22:22 16.7 °C 15.1 °C 1016.3 hPa NW 1.4 km/h 4.8 km/h 90% 0.0 mm 0 W/m2
22:27 16.7 °C 15.1 °C 1016.3 hPa Calm   4.8 km/h 90% 0.0 mm 0 W/m2
22:32 16.6 °C 15 °C 1016.3 hPa WNW 6.4 km/h 6.4 km/h 90% 0.0 mm 0 W/m2
22:37 16.6 °C 15 °C 1016.3 hPa West 4.7 km/h 8 km/h 90% 0.0 mm 0 W/m2
22:42 16.6 °C 15 °C 1016.3 hPa WNW 1.4 km/h 4.8 km/h 90% 0.0 mm 0 W/m2
22:47 16.6 °C 15 °C 1016.3 hPa West 1.4 km/h 3.2 km/h 90% 0.0 mm 0 W/m2
22:52 16.6 °C 15 °C 1016.3 hPa NW 4.7 km/h 4.8 km/h 90% 0.0 mm 0 W/m2
22:57 16.5 °C 14.9 °C 1016.3 hPa WNW 3.2 km/h 4.8 km/h 90% 0.0 mm 0 W/m2
23:02 16.5 °C 14.9 °C 1016.3 hPa Calm   4.8 km/h 90% 0.0 mm 0 W/m2
23:07 16.5 °C 14.9 °C 1016.3 hPa WNW 4.7 km/h 8 km/h 90% 0.0 mm 0 W/m2
23:12 16.4 °C 14.8 °C 1016.3 hPa WNW 4.7 km/h 4.8 km/h 90% 0.0 mm 0 W/m2
23:17 16.4 °C 14.8 °C 1016.3 hPa West 1.4 km/h 8 km/h 90% 0.0 mm 0 W/m2
23:22 16.4 °C 14.9 °C 1016.3 hPa West 1.4 km/h 6.4 km/h 91% 0.0 mm 0 W/m2
23:27 16.4 °C 14.9 °C 1016.3 hPa WNW 1.4 km/h 6.4 km/h 91% 0.0 mm 0 W/m2
23:32 16.4 °C 14.9 °C 1016.3 hPa West 1.4 km/h 4.8 km/h 91% 0.0 mm 0 W/m2
23:37 16.4 °C 14.9 °C 1016.3 hPa West 1.4 km/h 3.2 km/h 91% 0.0 mm 0 W/m2
23:42 16.4 °C 14.9 °C 1016.3 hPa West 1.4 km/h 6.4 km/h 91% 0.0 mm 0 W/m2
23:47 16.4 °C 14.9 °C 1016.3 hPa Calm   6.4 km/h 91% 0.0 mm 0 W/m2
23:52 16.4 °C 14.9 °C 1016.3 hPa North 1.4 km/h 3.2 km/h 91% 0.0 mm 0 W/m2
23:57 16.4 °C 14.9 °C 1016.3 hPa WNW 1.4 km/h 3.2 km/h 91% 0.0 mm 0 W/m2
Juneau County Weather
Compliments of Weather Underground - 4 mb